Home   Weather   Blackpool   Past weeks
Flag for United Kingdom

Past Weather in Blackpool, England, United Kingdom — Yesterday and Last 2 Weeks

Now
39 °F

Passing clouds.


Feels Like: 29 °F
Forecast: 36 / 41 °F
Wind: 20 mph from Southeast

Location: Liverpool Airport

Current Time: Dec 13, 2018 at 1:43:29 am

Latest Report: Dec 13, 2018 at 12:50 am


Visibility: N/A

Pressure: 29.98 "Hg

Humidity: 70%

Dew Point: 30 °F

Location of BlackpoolLocation

Past Weather in Blackpool — Graph

°F

Blackpool Temperature Yesterday

Maximum temperature yesterday: 46 °F (at 12:20 am)
Minimum temperature yesterday: 37 °F (at 9:20 pm)
Average temperature yesterday: 44 °F

High & Low Weather Summary for the Past Weeks

 TemperatureHumidityPressure
High57 °F (Nov 28, 11:20 am)100% (Dec 5, 9:50 pm)30.33 "Hg (Dec 5, 9:50 pm)
Low36 °F (Dec 4, 6:50 am)65% (Dec 12, 10:50 pm)29.06 "Hg (Nov 29, 9:50 am)
Average48 °F83%29.71 "Hg
* Reported Nov 28 12:20 am — Dec 13 12:20 am, Blackpool. Weather by CustomWeather, © 2018

Note: Actual official high and low records may vary slightly from our data, if they occured in-between our weather recording intervals... More about our weather records

Advertising

Blackpool Weather History for the Previous 24 Hours

Scroll right to see more
 ConditionsComfort  
Time TempWeatherWind HumidityBarometerVisibility
12:20 am
Thu, Dec 13
39 °FPassing clouds.20 mph70%30.01 "HgN/A
11:50 pm
Wed, Dec 12
39 °FPassing clouds.18 mph70%30.01 "HgN/A
11:20 pm39 °FPassing clouds.18 mph70%30.01 "HgN/A
10:50 pm39 °FPassing clouds.18 mph65%30.01 "HgN/A
10:20 pm39 °FPassing clouds.18 mph70%30.01 "HgN/A
9:50 pm39 °FPassing clouds.17 mph70%30.01 "HgN/A
9:20 pm37 °FPassing clouds.16 mph75%30.01 "HgN/A
8:50 pm41 °FPassing clouds.16 mph70%30.01 "HgN/A
8:20 pm41 °FPassing clouds.16 mph76%30.01 "HgN/A
7:50 pm41 °FPassing clouds.15 mph76%30.04 "HgN/A
7:20 pm41 °FOvercast.15 mph81%30.04 "HgN/A
6:50 pm43 °FOvercast.14 mph81%30.04 "HgN/A
6:20 pm43 °FOvercast.14 mph76%30.04 "HgN/A
5:50 pm45 °FPassing clouds.16 mph76%30.04 "HgN/A
5:20 pm45 °FPartly cloudy.14 mph81%30.04 "HgN/A
4:50 pm45 °FPartly cloudy.15 mph81%30.04 "HgN/A
4:20 pm45 °FPartly cloudy.12 mph87%30.07 "HgN/A
3:50 pm45 °FSunny.12 mph81%30.07 "Hg10 mi
3:20 pm45 °FScattered clouds.13 mph76%30.07 "HgN/A
2:50 pm46 °FPartly sunny.13 mph82%30.07 "HgN/A
2:20 pm46 °FBroken clouds.14 mph76%30.07 "HgN/A
1:50 pm46 °FBroken clouds.13 mph76%30.07 "HgN/A
1:20 pm45 °FBroken clouds.13 mph81%30.09 "HgN/A
12:50 pm45 °FBroken clouds.14 mph87%30.09 "Hg6 mi
12:20 pm45 °FPartly sunny.13 mph87%30.09 "Hg5 mi
11:50 am46 °FPartly sunny.14 mph82%30.09 "Hg5 mi
11:20 am45 °FPartly sunny.14 mph81%30.12 "Hg5 mi
10:50 am45 °FPartly sunny.13 mph87%30.12 "Hg5 mi
10:20 am45 °FPartly sunny.10 mph87%30.12 "Hg5 mi
9:50 am43 °FPartly sunny.13 mph87%30.12 "Hg5 mi
9:20 am43 °FScattered clouds.12 mph87%30.12 "Hg4 mi
8:50 am43 °FBroken clouds.12 mph87%30.12 "Hg4 mi
8:20 am43 °FScattered clouds.12 mph87%30.12 "Hg4 mi
7:50 am43 °FPassing clouds.13 mph87%30.12 "Hg4 mi
7:20 am43 °FPassing clouds.13 mph87%30.12 "HgN/A
6:50 am43 °FPassing clouds.13 mph87%30.12 "HgN/A
5:50 am45 °FPassing clouds.15 mph87%30.09 "HgN/A
5:20 am43 °FPassing clouds.12 mph87%30.09 "HgN/A
4:50 am46 °FPassing clouds.12 mph82%30.09 "HgN/A
4:20 am45 °FPassing clouds.9 mph87%30.09 "HgN/A
3:50 am45 °FPassing clouds.9 mph87%30.09 "HgN/A
3:20 am46 °FMostly cloudy.14 mph87%30.09 "HgN/A
2:50 am45 °FMostly cloudy.12 mph81%30.09 "HgN/A
2:20 am45 °FMostly cloudy.10 mph87%30.12 "HgN/A
1:50 am46 °FMostly cloudy.12 mph82%30.12 "HgN/A
1:20 am45 °FMostly cloudy.10 mph87%30.12 "HgN/A
Weather by CustomWeather, © 2018

See weather overview